Location: Unspecified
(17.6330°N, 0.0000°E)
Time: 11:03:40
(UTC+00:00)

A-11 Canister half - Pass Details

Date: 26 June 2019
Orbit: 1514 x 1686 km, 47.2° (Epoch: 17 August)

Event Time Altitude Azimuth Distance (km) Brightness Sun altitude
Rises 18:21:29 0° 303° (WNW) 4,701 14.0 2.8°
Reaches altitude 10° 18:24:52 10° 295° (WNW) 3,699 13.7 2.1°
Maximum altitude 18:33:02 36° 233° (SW) 2,229 10.3 0.3°
Drops below altitude 10° 18:41:11 10° 170° (S) 3,665 10.7 -1.5°
Sets 18:44:33 0° 161° (SSE) 4,652 11.1 -2.2°
